Regional Weather Roundup
Issued by NWS

Home | Current Version | Previous Version | Graphics & Text | Print | Product List | Glossary Off
Versions: 1 2 3 4 5 6 7 8 9 10 11 12 13 14 15 16 17 18 19 20 21 22 23 24 25 26 27 28 29 30 31 32 33 34 35 36 37 38 39 40 41 42 43 44 45 46 47 48 49 50

000
ASUS43 KDMX 222306
RWRIA

WEATHER ROUNDUP FOR IOWA
NATIONAL WEATHER SERVICE DES MOINES IA
600 PM CDT WED MAR 22 2017

NOTE: "FAIR" INDICATES FEW OR NO CLOUDS BELOW 12,000 FEET WITH NO
SIGNIFICANT WEATHER AND/OR OBSTRUCTIONS TO VISIBILITY.

* - THESE STATIONS ARE NOT NWS STATIONS...THUS NOT UNDER NWS
QUALITY CONTROL.  THEY ALSO DO NOT REPORT WEATHER SUCH
AS PRECIPITATION OR FOG.

IAZ001>003-012>014-020>022-031>034-043>046-230000-
   NORTHWEST IOWA

CITY           SKY/WX    TMP DP  RH WIND       PRES   REMARKS
CARROLL *      CLOUDY    45  27  49 SE22G29   30.27F
CHEROKEE *     CLOUDY    41  24  49 SE20      30.26F
DENISON *      CLOUDY    43  28  56 SE13G20   30.23F
LE MARS *      CLOUDY    41  25  52 SE22G29   30.22F
ORANGE CITY *  CLOUDY    39  25  56 SE13G21   30.22F WCI  32
SHELDON *      CLOUDY    37  28  70 SE16G22   30.22F WCI  28
SIOUX CITY     CLOUDY    45  29  53 SE20G31   30.19F
SPENCER        CLOUDY    38  23  55 SE16      30.27F WCI  29
STORM LAKE *   CLOUDY    41  23  48 SE23G29   30.25F
$$

IAZ055>058-069>071-079>083-090>094-230000-
   SOUTHWEST IOWA

CITY           SKY/WX    TMP DP  RH WIND       PRES   REMARKS
ATLANTIC *     CLOUDY    48  23  37 SE13G22   30.25S
AUDUBON *      CLOUDY    45  27  49 SE15      30.26F
CLARINDA *     CLOUDY    48  25  40 SE16G23   30.27F
COUNCIL BLFS * MOSUNNY   48  23  37 SE15G24   30.20F
CRESTON *      CLOUDY    46  23  39 SE22      30.27F
HARLAN  *      CLOUDY    46  23  39 SE16G22   30.27F
LAMONI         CLOUDY    46  20  35 E14G21    30.28F
RED OAK *      CLOUDY    48  23  37 SE15      30.24F
SHENANDOAH *   PTSUNNY   50  27  40 E16G23    30.24F
$$

IAZ047>049-059>061-072>074-084-230000-
   CENTRAL IOWA

CITY           SKY/WX    TMP DP  RH WIND       PRES   REMARKS
AMES           CLOUDY    43  20  39 SE12      30.33F
ANKENY *       CLOUDY    45  23  42 SE13G22   30.34F
BOONE *        CLOUDY    43  19  39 SE17      30.31F
CHARITON *     CLOUDY    46  21  36 SE15G21   30.31F
DES MOINES     CLOUDY    45  23  42 E13       30.32F
KNOXVILLE *    CLOUDY    45  21  39 SE15      30.32F
MARSHALLTOWN   CLOUDY    42  17  36 SE16      30.35F
NEWTON *       CLOUDY    43  19  39 SE14G21   30.34F
PELLA *        CLOUDY    44  22  41 SE12G17   30.35F
PERRY *        CLOUDY    44  22  41 E16G23    30.30F
$$

IAZ004>006-015-016-023>025-035-036-230000-
   NORTH CENTRAL IOWA

CITY           SKY/WX    TMP DP  RH WIND       PRES   REMARKS
ALGONA *       CLOUDY    39  25  56 SE13G18   30.32F WCI  32
CLARION *      CLOUDY    41  21  45 SE14G21   30.33F
FORT DODGE *   CLOUDY    41  19  42 SE13G18   30.31F
MASON CITY     CLOUDY    38  19  46 SE13      30.36F WCI  30
FOREST CITY *  CLOUDY    37  21  52 SE14G21   30.33F WCI  29
WEBSTER CITY * CLOUDY    43  19  39 SE16      30.30F
IOWA FALLS *   CLOUDY    42  20  41 SE13      30.37S
$$

IAZ007>011-017>019-026>030-037>042-050>054-066-230000-
   NORTHEAST IOWA

CITY           SKY/WX    TMP DP  RH WIND       PRES   REMARKS
CEDAR RAPIDS   CLOUDY    41  17  38 SE12      30.40S
CLINTON *      MOSUNNY   40  22  48 SE13      30.45F WCI  32
DECORAH *      CLOUDY    39  10  30 SE9G16    30.39F WCI  33
DUBUQUE        MOSUNNY   39  13  34 SE9       30.43F WCI  33
MONTICELLO *   MOSUNNY   41  16  36 SE9       30.42F
OELWEIN *      CLOUDY    39  16  38 SE14      30.40S WCI  31
WATERLOO       CLOUDY    42  14  32 SE16      30.39F
$$

IAZ064-065-067-068-078-230000-
   EAST CENTRAL IOWA

CITY           SKY/WX    TMP DP  RH WIND       PRES   REMARKS
DAVENPORT      PTSUNNY   42  18  37 SE10      30.44F
IOWA CITY      PTSUNNY   44  18  35 SE12      30.43S
MUSCATINE *    MOSUNNY   43  19  39 SE9       30.43F
QUAD CITIES    PTSUNNY   42  20  41 SE9       30.44S
$$

IAZ062-063-075>077-085>089-095>099-230000-
   SOUTHEAST IOWA

CITY           SKY/WX    TMP DP  RH WIND       PRES   REMARKS
BURLINGTON     MOSUNNY   45  17  32 SE13      30.40F
FAIRFIELD *    CLOUDY    45  16  31 SE12      30.37F
FORT MADISON * SUNNY     48  16  27 SE12      30.40F
KEOKUK *       PTSUNNY   45  16  31 E12       30.38F
OSKALOOSA *    CLOUDY    44  22  42 SE15      30.36F
CENTERVILLE *    N/A     45  18  33 E15       30.34F
OTTUMWA        CLOUDY    45  19  35 SE13G21   30.36F
WASHINGTON *   PTSUNNY   45  19  36 E16       30.41F
$$

ABBREVIATIONS USED IN REMARKS
   TC - TEMPERATURES IN CELSIUS
  WCI - WIND CHILL INDEX
   HX - HEAT INDEX
  VSB - VISIBILITY
$$




USA.gov is the U.S. government's official web portal to all federal, state and local government web resources and services.